TimeMDT,TemperatureF,Dew PointF,Humidity,Sea Level PressureIn,VisibilityMPH,Wind Direction,Wind SpeedMPH,Gust SpeedMPH,PrecipitationIn,Events,Conditions,WindDirDegrees,DateUTC
12:53 AM,37.9,30.0,73,30.17,10.0,WSW,5.8,-,N/A,,Clear,250,2013-10-17 06:53:00
1:53 AM,35.1,28.9,78,30.17,10.0,WSW,4.6,-,N/A,,Clear,250,2013-10-17 07:53:00
2:53 AM,35.1,28.9,78,30.18,10.0,Calm,Calm,-,N/A,,Clear,0,2013-10-17 08:53:00
3:53 AM,36.0,28.9,76,30.17,10.0,West,3.5,-,N/A,,Clear,280,2013-10-17 09:53:00
4:53 AM,35.1,28.9,78,30.17,10.0,Calm,Calm,-,N/A,,Clear,0,2013-10-17 10:53:00
5:53 AM,32.0,28.0,85,30.19,10.0,WSW,6.9,-,N/A,,Clear,240,2013-10-17 11:53:00
6:53 AM,33.1,28.0,82,30.20,10.0,Calm,Calm,-,N/A,,Clear,0,2013-10-17 12:53:00
7:53 AM,33.1,28.0,82,30.22,10.0,Calm,Calm,-,N/A,,Clear,0,2013-10-17 13:53:00
8:53 AM,35.1,28.9,78,30.25,10.0,Calm,Calm,-,N/A,,Clear,0,2013-10-17 14:53:00
9:53 AM,39.9,32.0,73,30.27,10.0,Calm,Calm,-,N/A,,Clear,0,2013-10-17 15:53:00
10:53 AM,50.0,34.0,54,30.25,10.0,Calm,Calm,-,N/A,,Clear,0,2013-10-17 16:53:00
11:53 AM,57.9,34.0,41,30.24,10.0,NW,5.8,-,N/A,,Clear,310,2013-10-17 17:53:00
12:53 PM,61.0,32.0,34,30.22,10.0,North,5.8,-,N/A,,Clear,350,2013-10-17 18:53:00
1:53 PM,62.1,32.0,32,30.21,10.0,Calm,Calm,-,N/A,,Clear,0,2013-10-17 19:53:00
2:53 PM,64.9,30.0,27,30.18,10.0,NW,9.2,-,N/A,,Clear,310,2013-10-17 20:53:00
3:53 PM,64.9,28.9,26,30.17,10.0,NW,10.4,-,N/A,,Clear,320,2013-10-17 21:53:00
4:53 PM,66.0,30.0,26,30.17,10.0,NW,10.4,-,N/A,,Clear,310,2013-10-17 22:53:00
5:53 PM,64.0,30.9,29,30.17,10.0,NW,12.7,-,N/A,,Clear,310,2013-10-17 23:53:00
6:53 PM,59.0,32.0,36,30.18,10.0,NNW,10.4,-,N/A,,Clear,330,2013-10-18 00:53:00
7:53 PM,53.1,32.0,45,30.21,10.0,NW,5.8,-,N/A,,Clear,320,2013-10-18 01:53:00
8:53 PM,54.0,32.0,43,30.21,10.0,NNW,9.2,-,N/A,,Clear,330,2013-10-18 02:53:00
9:53 PM,53.1,33.1,47,30.23,10.0,North,6.9,-,N/A,,Clear,350,2013-10-18 03:53:00
10:53 PM,51.1,32.0,48,30.22,10.0,WNW,5.8,-,N/A,,Clear,300,2013-10-18 04:53:00
11:53 PM,48.9,32.0,52,30.22,10.0,Calm,Calm,-,N/A,,Clear,0,2013-10-18 05:53:00